Location: *
(37.9500°N, 27.3666°E)
Time: 13:19:41
(UTC+00:00)

NOSS 3-1 (A) - Pass Details

Date: 24 October 2021
Orbit: 721 x 1491 km, 63.4° (Epoch: 22 November)

Event Time Altitude Azimuth Distance (km) Brightness Sun altitude
Rises 15:57:36 0° 196° (SSW) 3,130 6.5 -7.9°
Reaches altitude 10° 15:59:54 10° 191° (S) 2,243 5.7 -8.4°
Maximum altitude 16:04:47 51° 116° (ESE) 994 3.3 -9.3°
Drops below altitude 10° 16:10:22 10° 42° (NE) 2,558 5.3 -10.4°
Enters shadow 16:12:29 - 38° (NE) 3,366 5.9 -10.8°
